📊 Raw Sensor Data

Showing records 50851 to 50875 of 85,139 total

ID Distance (ft) Battery V Battery A Int Temp (°F) Int Humid (%) Ext Temp (°F) Solar V RSSI SNR Time Stamp
34301 15.2 4.01 0 44 35 47 5.10 -74 8 03/07/2025 08:00 AM
34300 15.1 4.01 0 42 36 46 5.10 -74 8 03/07/2025 07:45 AM
34299 15.1 4.01 5 40 36 44 5.10 -74 7 03/07/2025 07:30 AM
34298 15.2 4.04 10 37 37 40 4.50 -75 8 03/07/2025 07:00 AM
34297 15.2 4.04 7 37 37 39 4.50 -75 7 03/07/2025 06:45 AM
34296 15.1 3.92 -13 36 38 39 4.50 -74 8 03/07/2025 06:30 AM
34295 15.2 3.99 -5 36 38 38 0.80 -75 8 03/07/2025 06:15 AM
34294 15.1 3.99 -5 37 38 39 0.10 -75 8 03/07/2025 06:00 AM
34293 15.1 3.94 -5 38 37 40 0.00 -74 8 03/07/2025 05:30 AM
34292 15.3 3.94 -5 37 38 40 0.00 -74 9 03/07/2025 05:15 AM
34291 15.1 3.94 -5 37 38 39 0.00 -74 8 03/07/2025 05:00 AM
34290 15.2 4.00 -5 37 38 39 0.00 -74 9 03/07/2025 04:45 AM
34289 15.1 4.00 -5 37 38 39 0.00 -74 8 03/07/2025 04:30 AM
34288 15.1 4.00 -5 37 38 38 0.00 -74 8 03/07/2025 04:15 AM
34287 15.1 3.94 -5 37 38 38 0.00 -75 7 03/07/2025 04:00 AM
34286 -- 3.94 -5 37 38 40 0.00 -75 8 03/07/2025 03:45 AM
34285 15.1 3.94 -5 37 38 40 0.00 -74 8 03/07/2025 03:30 AM
34284 15.1 3.94 -35 37 38 37 0.00 -75 9 03/07/2025 03:15 AM
34283 15.1 4.00 -5 38 38 40 0.00 -75 8 03/07/2025 03:00 AM
34282 15.1 3.94 -21 38 38 40 0.00 -76 9 03/07/2025 02:45 AM
34281 15.1 3.95 -5 38 38 42 0.10 -76 8 03/07/2025 02:30 AM
34280 15.1 3.95 -5 38 38 41 0.00 -75 8 03/07/2025 02:15 AM
34279 15.1 4.01 -5 38 38 41 0.10 -75 9 03/07/2025 02:00 AM
34278 15.1 4.01 -5 37 38 41 0.00 -75 9 03/07/2025 01:45 AM
34277 15.0 3.95 -5 37 38 39 0.00 -76 8 03/07/2025 01:30 AM